Regional Weather Roundup
Issued by NWS Kansas City/Pleasant Hill, MO

Home | Current Version | Previous Version | Text Only | Print | Product List | Glossary On
Versions: 1 2 3 4 5 6 7 8 9 10 11 12 13 14 15 16 17 18 19 20 21 22 23 24 25 26 27 28 29 30 31 32 33 34 35 36 37 38 39 40 41 42 43 44 45 46 47 48 49 50
000
ASUS43 KEAX 041710
RWREAX

WEATHER ROUNDUP FOR EASTERN KANSAS AND NORTHWEST MISSOURI
NATIONAL WEATHER SERVICE KANSAS CITY/PLEASANT HILL MO
1100 AM CST WED MAR 04 2015

KSZ040-057-103>105-MOZ028-029-037-043-041800-
...KANSAS CITY METROPOLITAN AREA...

CITY           SKY/WX    TMP DP  RH WIND       PRES   REMARKS
K.C. INTL      CLOUDY    23   6  48 N14G21    30.31S WCI  11
K.C. DOWNTOWN  PTSUNNY   25   5  42 N17       30.32F WCI  12
LEES SUMMIT    PTSUNNY   22   8  55 N18       30.30S WCI   7
OLATHE - IXD   CLOUDY    23  11  60 N14       30.30S WCI  11
OLATHE - OJC   CLOUDY    22   8  55 N17       30.28S WCI   8
LAWRENCE       CLOUDY    25   6  44 N16       30.32F WCI  12

$$

MOZ001>008-011>017-020>025-030>033-038>040-044>046-053-054-041800-
...NORTHERN AND CENTRAL MISSOURI...

CITY           SKY/WX    TMP DP  RH WIND       PRES   REMARKS
ST. JOSEPH     PTSUNNY   22   5  48 N13       30.35F WCI  10
MOSBY            N/A     23   5  46 N15G23    30.32S WCI  10
WARRENSBURG    CLOUDY    23   9  54 N15       30.29F WCI  10
WHITEMAN AFB   NOT AVBL
CLINTON        PTSUNNY   25  12  58 NE15      30.29F WCI  12
SEDALIA        CLOUDY    21   8  57 N20       30.29R WCI   6
WARSAW         NOT AVBL
MARSHALL       CLOUDY    23  12  63 N15       30.31  WCI  10
CHILLICOTHE      N/A     24   4  42 N13G18    30.32F WCI  12
MOBERLY        CLOUDY    21   5  49 N15       30.28R WCI   8
KIRKSVILLE     NOT AVBL

$$

MOZ041-047>049-056>058-063>065-088>090-097-041800-
...EASTERN AND SOUTHERN MISSOURI...

CITY           SKY/WX    TMP DP  RH WIND       PRES   REMARKS
ST. LOUIS INTL CLOUDY    23   8  52 N14       30.23S WCI  11
SPIRIT OF STL  CLOUDY    21   8  57 N7        30.23F WCI  12
COLUMBIA       CLOUDY    21   6  52 N15       30.26F WCI   8
JEFFERSON CITY CLOUDY    22   5  48 N17       30.31R WCI   8
HANNIBAL       CLOUDY    21   1  42 NW10      30.26F WCI  10
ROLLA          LGT SNOW  18  11  74 N15       30.20R WCI   4
OSAGE BEACH    CLOUDY    21  12  68 N12G20    30.24S WCI   9
SPRINGFIELD    LGT SNOW  23  19  85 N18       30.18R VSB 3/4 WCI   9
BRANSON        FRZ RAIN  28  28 100 N12G18    30.11S WCI  18
NEVADA         CLOUDY    23  12  63 N14       30.30R WCI  11
JOPLIN         LGT SNOW  21  16  81 N15G26    30.25R VSB 1   WCI   8
WEST PLAINS    FRZ RAIN  25  19  78 N22G33    30.11F WCI  10

$$

IAZ060-094-KSZ022-034>040-054-083-096-NEZ052-066-093-041800-
...KANSAS...SOUTHEAST NEBRASKA AND IOWA...

CITY           SKY/WX    TMP DP  RH WIND       PRES   REMARKS
TOPEKA         CLOUDY    26   9  48 N16       30.33F WCI  14
MANHATTAN      MOSUNNY   28   8  43 NE15G21   30.33F WCI  16
EMPORIA        CLOUDY    24  13  62 N18       30.28F WCI  10
CHANUTE        FLURRIES  23  14  68 N16G23    30.28R WCI  10
WICHITA        CLOUDY    23  14  68 N13       30.30R WCI  11
OMAHA          MOSUNNY   26   5  40 NW10      30.30F WCI  16
LINCOLN        SUNNY     26   8  46 NW18G25   30.32S WCI  13
FALLS CITY     MOSUNNY   25  10  53 VRB5      30.33F WCI  19
LAMONI         MOSUNNY   21   5  50 N10G16    30.29F WCI  10
DES MOINES     MOSUNNY   20   2  45 NW8       30.30S WCI  10

$$



USA.gov is the U.S. government's official web portal to all federal, state and local government web resources and services.